Location: *
(37.9500°N, 27.3666°E)
Time: 12:57:15
(UTC+00:00)

USA 229 DEB - Pass Details

Date: 24 October 2021
Orbit: 944 x 1268 km, 63.4° (Epoch: 25 November)

Event Time Altitude Azimuth Distance (km) Brightness Sun altitude
Rises 15:34:22 0° 185° (S) 3,597 6.7 -3.4°
Reaches altitude 10° 15:37:04 10° 176° (S) 2,669 5.9 -3.9°
Maximum altitude 15:42:38 36° 112° (ESE) 1,514 4.1 -5.0°
Drops below altitude 10° 15:48:29 10° 49° (NE) 2,814 5.4 -6.1°
Sets 15:51:23 0° 41° (NE) 3,817 6.1 -6.7°
